EW5678 Weather Reports


Display with metric or nautical units.
time (UTC)temp
F
wind
direction
speed
MPH
gust
MPH
rain 1hr
in
rain 24hr
in
rain mn
in
humidity
%
barometer
mb
20260905043347 73 18 13.0 17.0 0.00 0.49 0.00 68 1000.1
20260905042447 73 25 12.0 15.0 0.00 0.49 0.00 69 1000.1
20260905041546 73 30 14.0 17.0 0.00 0.49 0.00 71 1000.2
20260905035747 73 30 14.0 18.0 0.00 0.49 0.00 71 1000.2
20260905034847 73 19 16.0 19.0 0.00 0.49 0.00 73 1000.2
20260905033947 73 6 17.0 21.0 0.00 0.49 0.00 72 1000.1
20260905033047 74 353 16.0 21.0 0.00 0.49 0.00 71 1000.1
20260905032146 74 344 13.0 17.0 0.00 0.49 0.00 75 1000.0
20260905031247 74 325 11.0 14.0 0.00 0.49 0.00 78 1000.0
20260905030347 76 330 9.0 12.0 0.00 0.49 0.00 75 1000.0
20260905025447 76 330 7.0 12.0 0.00 0.49 0.00 67 999.9
20260905024547 76 323 5.0 6.0 0.00 0.49 0.00 66 999.9
20260905023647 76 327 4.0 5.0 0.00 0.49 0.00 66 999.9
20260905022747 76 325 5.0 6.0 0.00 0.49 0.00 67 1000.0
20260905021847 76 326 5.0 6.0 0.00 0.49 0.00 65 999.9
20260905020947 76 327 4.0 5.0 0.00 0.49 0.00 65 1000.0
20260905020046 76 342 4.0 5.0 0.00 0.49 0.00 65 1000.1
20260905015147 76 313 2.0 4.0 0.00 0.49 0.00 66 1000.1
20260905014246 76 324 2.0 4.0 0.00 0.49 0.00 65 1000.0
20260905013346 76 327 4.0 4.0 0.00 0.49 0.00 65 1000.0
20260905012447 76 5 3.0 4.0 0.00 0.49 0.00 68 1000.1
20260905011546 76 28 3.0 5.0 0.00 0.49 0.00 68 1000.2
20260905010647 76 31 2.0 5.0 0.00 0.49 0.00 68 1000.3
20260905005746 76 37 1.0 3.0 0.00 0.49 0.00 67 1000.2
20260905004847 76 45 3.0 5.0 0.00 0.49 0.00 68 1000.2
20260905003946 76 33 2.0 4.0 0.00 0.49 0.00 68 1000.3
20260905003046 76 17 1.0 3.0 0.00 0.49 0.00 71 1000.3
20260905001246 76 306 1.0 2.0 0.00 0.49 0.00 71 1000.1
20260905000348 77 293 3.0 5.0 0.00 0.49 0.00 72 1000.2
20260904235448 77 289 4.0 5.0 0.00 0.49 0.49 70 1000.1
20260904234547 77 313 4.0 6.0 0.00 0.49 0.49 71 1000.0
20260904233647 77 323 5.0 7.0 0.00 0.49 0.49 68 999.9
20260904232747 77 324 6.0 7.0 0.00 0.49 0.49 68 999.9
20260904231847 78 323 7.0 8.0 0.00 0.49 0.49 67 999.7
20260904230946 78 325 7.0 9.0 0.00 0.49 0.49 66 999.7
20260904230047 78 337 7.0 9.0 0.00 0.49 0.49 65 999.8
20260904225146 79 330 7.0 10.0 0.00 0.49 0.49 64 999.7
20260904224246 79 325 7.0 10.0 0.00 0.49 0.49 65 999.8
20260904223347 79 330 6.0 8.0 0.00 0.49 0.49 64 999.8
20260904221546 79 323 7.0 12.0 0.00 0.49 0.49 65 999.8
20260904220647 79 339 7.0 11.0 0.00 0.49 0.49 64 999.8
20260904215746 79 316 6.0 13.0 0.00 0.49 0.49 64 999.7
20260904214846 79 339 6.0 10.0 0.00 0.49 0.49 62 999.7
20260904213946 79 338 8.0 11.0 0.00 0.49 0.49 61 999.7
20260904213047 79 345 7.0 11.0 0.00 0.49 0.49 62 999.7
20260904212146 79 354 9.0 12.0 0.00 0.49 0.49 63 999.7
20260904211246 79 358 9.0 13.0 0.00 0.49 0.49 63 999.8
20260904210346 79 338 9.0 15.0 0.00 0.49 0.49 62 999.8
20260904205446 79 342 10.0 15.0 0.00 0.49 0.49 64 1000.0
20260904204547 79 331 12.0 16.0 0.00 0.49 0.49 62 999.9
20260904203646 79 324 12.0 17.0 0.00 0.49 0.49 63 1000.0
20260904202746 79 333 10.0 16.0 0.00 0.49 0.49 61 999.9
20260904201846 79 12 12.0 17.0 0.00 0.49 0.49 61 1000.0
20260904200046 79 349 12.0 17.0 0.00 0.49 0.49 61 999.9
20260904195146 79 343 12.0 18.0 0.00 0.49 0.49 60 1000.0
20260904192446 78 356 16.0 21.0 0.00 0.49 0.49 59 1000.3
20260904191546 79 351 15.0 23.0 0.00 0.49 0.49 60 1000.4
20260904190646 79 341 16.0 21.0 0.00 0.49 0.49 61 1000.4
20260904185746 79 349 14.0 22.0 0.00 0.49 0.49 61 1000.4
20260904184846 78 1 16.0 23.0 0.00 0.49 0.49 62 1000.3
20260904183947 78 353 17.0 25.0 0.00 0.49 0.49 63 1000.6
20260904181246 78 352 14.0 22.0 0.00 0.49 0.49 63 1000.4
20260904180346 78 351 16.0 25.0 0.00 0.49 0.49 64 1000.5
20260904173646 78 8 17.0 27.0 0.00 0.49 0.49 61 1000.3
20260904172746 78 9 16.0 24.0 0.00 0.49 0.49 65 1000.5
20260904171846 78 11 21.0 30.0 0.00 0.49 0.49 63 1000.5
20260904170946 77 20 19.0 28.0 0.00 0.49 0.49 67 1000.6
20260904165146 78 12 15.0 24.0 0.00 0.49 0.49 70 1000.5
20260904164246 78 3 18.0 26.0 0.00 0.49 0.49 72 1000.4
20260904163346 78 345 18.0 29.0 0.00 0.49 0.49 70 1000.4
20260904161547 77 3 17.0 25.0 0.00 0.49 0.49 77 1000.6
20260904160646 78 6 16.0 25.0 0.00 0.49 0.49 75 1000.7
20260904155747 77 2 19.0 28.0 0.00 0.49 0.49 76 1000.8
20260904153947 76 336 17.0 22.0 0.00 0.49 0.49 80 1000.8
20260904153046 76 336 16.0 21.0 0.00 0.49 0.49 82 1000.8
20260904152147 76 338 14.0 21.0 0.00 0.49 0.49 82 1000.8
20260904151247 75 338 12.0 21.0 0.00 0.49 0.49 85 1000.9
20260904150347 75 333 12.0 17.0 0.00 0.49 0.49 85 1000.9
20260904145446 75 328 10.0 14.0 0.00 0.49 0.49 85 1000.8
20260904144546 75 338 9.0 14.0 0.00 0.49 0.49 84 1000.9
20260904142747 75 1 11.0 17.0 0.00 0.49 0.49 84 1000.9
20260904141846 74 7 9.0 16.0 0.00 0.49 0.49 86 1000.9
20260904140946 74 341 10.0 14.0 0.00 0.49 0.49 87 1000.8
20260904134246 73 352 7.0 13.0 0.00 0.49 0.49 88 1000.7
20260904133346 73 348 10.0 16.0 0.00 0.49 0.49 87 1000.6
20260904132447 73 344 10.0 16.0 0.00 0.49 0.49 88 1000.6
20260904131547 72 348 12.0 16.0 0.00 0.49 0.49 89 1000.6
20260904130646 72 3 12.0 21.0 0.00 0.49 0.49 90 1000.6
20260904125747 72 353 14.0 21.0 0.00 0.49 0.49 88 1000.5
20260904123946 72 348 13.0 19.0 0.00 0.49 0.49 91 1000.5
20260904123046 71 340 16.0 19.0 0.00 0.49 0.49 91 1000.6
20260904122147 71 330 14.0 19.0 0.00 0.49 0.49 93 1000.5
20260904121246 71 331 14.0 21.0 0.00 0.49 0.49 93 1000.5
20260904120346 71 323 14.0 19.0 0.00 0.49 0.49 93 1000.4
20260904115446 71 325 18.0 22.0 0.00 0.49 0.49 93 1000.4
20260904114546 71 325 18.0 21.0 0.00 0.49 0.49 92 1000.4
20260904113647 71 325 16.0 21.0 0.00 0.49 0.49 92 1000.3
20260904112747 71 320 19.0 23.0 0.00 0.49 0.49 92 1000.4
20260904111846 71 323 21.0 25.0 0.00 0.49 0.49 91 1000.3
20260904110946 71 324 19.0 23.0 0.00 0.49 0.49 92 1000.2
20260904110046 71 331 17.0 20.0 0.00 0.49 0.49 94 1000.1
20260904105146 71 329 16.0 19.0 0.00 0.49 0.49 93 1000.1
20260904104246 71 330 15.0 17.0 0.00 0.49 0.49 93 1000.0
20260904103346 71 329 15.0 18.0 0.00 0.49 0.49 91 999.8
20260904101547 72 333 11.0 12.0 0.00 0.49 0.49 90 999.7
20260904100647 72 342 10.0 12.0 0.00 0.49 0.49 90 999.5
20260904095747 72 358 8.0 10.0 0.00 0.49 0.49 91 999.4
20260904094846 72 17 9.0 10.0 0.00 0.49 0.49 91 999.6
20260904093946 72 16 8.0 10.0 0.00 0.49 0.49 91 999.6
20260904093046 72 333 8.0 10.0 0.00 0.49 0.49 91 999.5
20260904092146 72 322 6.0 9.0 0.00 0.49 0.49 89 999.6
20260904091246 72 341 6.0 7.0 0.00 0.49 0.49 92 999.5
20260904085447 72 338 5.0 10.0 0.00 0.49 0.49 93 999.6
20260904084547 72 325 10.0 15.0 0.00 0.49 0.49 93 999.7
20260904083646 72 326 14.0 20.0 0.00 0.49 0.49 93 999.7
20260904082746 73 332 16.0 22.0 0.00 0.49 0.49 91 1000.0
20260904081847 74 326 12.0 19.0 0.00 0.49 0.49 88 999.9
20260904080947 74 300 10.0 12.0 0.00 0.49 0.49 86 999.6
20260904080046 72 303 8.0 11.0 0.00 0.49 0.49 94 999.4
20260904075146 71 343 7.0 8.0 0.00 0.49 0.49 97 999.3
20260904074246 70 31 7.0 10.0 0.01 0.49 0.49 97 999.4
20260904071547 70 37 15.0 20.0 0.27 0.50 0.49 97 999.6
20260904070646 71 30 18.0 22.0 0.48 0.50 0.49 97 999.8
20260904064846 71 304 12.0 15.0 0.49 0.50 0.49 98 1000.2
20260904063946 71 311 9.0 15.0 0.48 0.49 0.48 98 1000.1
20260904063046 71 264 12.0 24.0 0.48 0.49 0.48 98 999.8
20260904061246 73 300 22.0 53.0 0.12 0.13 0.14 95 1000.6
20260904060346 76 289 5.0 11.0 0.00 0.02 0.00 90 1000.3
20260904055446 76 277 2.0 6.0 0.00 0.03 0.00 91 1000.3
20260904054546 76 273 3.0 7.0 0.00 0.03 0.00 90 1000.6
20260904053646 77 265 6.0 13.0 0.00 0.04 0.00 89 1000.6
20260904052746 77 266 9.0 15.0 0.00 0.05 0.00 87 1000.7
20260904051846 78 258 9.0 15.0 0.00 0.05 0.00 86 1000.8
20260904050946 77 241 12.0 15.0 0.00 0.05 0.00 87 1000.7
20260904050046 77 245 11.0 16.0 0.00 0.05 0.00 88 1000.8
20260904044246 77 240 12.0 15.0 0.00 0.05 0.00 88 1001.1